Phuket, Thailand

4:52 PM ICT on September 27, 2016 (GMT +0700)
Phuket International

Weather History for VTSP - January, 2014

Change the Weather History Date:

Thursday, January 30, 2014

  Actual Average Record
Temperature  
Mean Temperature 78 °F -  
Max Temperature 89 °F 90 °F 98 °F (1998)
Min Temperature 68 °F 75 °F 68 °F (2014)
Cooling Degree Days 14    
Growing Degree Days 28 (Base 50)    
Moisture  
Dew Point 64 °F    
Average Humidity 57    
Maximum Humidity 83    
Minimum Humidity 29    
Precipitation  
Precipitation 0.00 in - - ()
Sea Level Pressure  
Sea Level Pressure 29.90 in    
Wind  
Wind Speed 8 mph ()    
Max Wind Speed 17 mph    
Max Gust Speed -    
Visibility 5.7 miles    
Events      
Averages and records for this station are not official NWS values.
T = Trace of Precipitation, MM = Missing Value Source: Averaged Metar Reports

Daily Weather History Graph

Daily Weather History Graph

Search for Another Location

Airport or City:

Trip Planner

Search our weather history database for the weather conditions in past years. The results will help you decide how hot, cold, wet, or windy it might be!

Date:

Astronomy

Jan. 30, 2014 Rise Set
Actual Time 6:46 AM ICT 6:33 PM ICT
Civil Twilight 6:24 AM ICT 6:55 PM ICT
Nautical Twilight 5:59 AM ICT 7:20 PM ICT
Astronomical Twilight 5:34 AM ICT 7:45 PM ICT
Moon 5:50 AM ICT (1/30) 6:00 PM ICT (1/30)
Length of Visible Light 12h 30m
Length of Day
11h 46m
Waning Crescent, 1% of the Moon is Illuminated
Jan 30
Waning Crescent
Jan 31
New
Feb 7
First Quarter
Feb 15
Full
Feb 23
Last Quarter

Hourly Weather History & Observations

Time (ICT) Temp. Heat Index Dew Point Humidity Pressure Visibility Wind Dir Wind Speed Gust Speed Precip Events Conditions
12:00 AM 78.8 °F - 66.2 °F 65% 29.95 in 5.0 mi East 8.1 mph - N/A   Scattered Clouds
12:30 AM 78.8 °F - 66.2 °F 65% 29.95 in 5.0 mi East 5.8 mph - N/A   Scattered Clouds
1:00 AM 77 °F - 68 °F 66% 29.89 in 5 mi Calm Calm - -   Mist
1:00 AM 77.0 °F - 66.2 °F 69% 29.95 in 5.0 mi East 5.8 mph - N/A   Scattered Clouds
1:30 AM 77.0 °F - 66.2 °F 69% 29.92 in 5.0 mi East 5.8 mph - N/A   Scattered Clouds
2:00 AM 75.2 °F - 66.2 °F 73% 29.92 in 5.0 mi ENE 6.9 mph - N/A   Scattered Clouds
2:30 AM 75.2 °F - 66.2 °F 73% 29.92 in 5.0 mi ENE 5.8 mph - N/A   Scattered Clouds
3:00 AM 75.2 °F - 66.2 °F 73% 29.92 in 5.0 mi ENE 4.6 mph - N/A   Scattered Clouds
3:30 AM 73.4 °F - 68.0 °F 83% 29.89 in 5.0 mi Variable 2.3 mph - N/A   Scattered Clouds
4:00 AM 73 °F - 68 °F 79% 29.86 in 5 mi Calm Calm - -   Mist
4:00 AM 73.4 °F - 68.0 °F 83% 29.92 in 5.0 mi ESE 3.5 mph - N/A   Scattered Clouds
4:30 AM 73.4 °F - 68.0 °F 83% 29.92 in 5.0 mi ENE 6.9 mph - N/A   Scattered Clouds
5:00 AM 73.4 °F - 66.2 °F 78% 29.92 in 5.0 mi ENE 6.9 mph - N/A   Scattered Clouds
5:30 AM 73.4 °F - 66.2 °F 78% 29.92 in 5.0 mi East 6.9 mph - N/A   Scattered Clouds
6:30 AM 73.4 °F - 66.2 °F 78% 29.92 in 5.0 mi ENE 8.1 mph - N/A   Scattered Clouds
7:00 AM 74 °F - 68 °F 76% 29.88 in 4 mi Calm Calm - -   Mist
7:00 AM 73.4 °F - 66.2 °F 78% 29.92 in 5.0 mi ENE 9.2 mph - N/A   Mostly Cloudy
7:30 AM 75.2 °F - 68.0 °F 78% 29.95 in 5.0 mi ENE 9.2 mph - N/A   Mostly Cloudy
8:00 AM 77.0 °F - 68.0 °F 74% 29.95 in 5.0 mi East 10.4 mph - N/A   Mostly Cloudy
8:30 AM 78.8 °F - 68.0 °F 69% 29.95 in 6.2 mi ENE 13.8 mph - N/A   Scattered Clouds
9:00 AM 80.6 °F 83.2 °F 68.0 °F 65% 29.95 in 6.2 mi East 15.0 mph - N/A   Scattered Clouds
9:30 AM 82.4 °F 84.6 °F 66.2 °F 58% 29.95 in 6.2 mi East 17.3 mph - N/A   Scattered Clouds
10:00 AM 82 °F - 69 °F 56% 29.95 in 6 mi ENE 9.2 mph - -   Scattered Clouds
10:00 AM 82.4 °F 83.9 °F 64.4 °F 54% 29.95 in 6.2 mi ENE 17.3 mph - N/A   Partly Cloudy
10:30 AM 82.4 °F 84.6 °F 66.2 °F 58% 29.95 in 6.2 mi ENE 13.8 mph - N/A   Partly Cloudy
11:00 AM 82.4 °F 83.9 °F 64.4 °F 54% 29.95 in 6.2 mi ENE 17.3 mph - N/A   Partly Cloudy
11:30 AM 84.2 °F 85.6 °F 64.4 °F 51% 29.92 in 6.2 mi ENE 13.8 mph - N/A   Partly Cloudy
12:00 PM 86.0 °F 86.6 °F 62.6 °F 45% 29.92 in 6.2 mi East 13.8 mph - N/A   Partly Cloudy
12:30 PM 87.8 °F 88.5 °F 62.6 °F 43% 29.92 in 6.2 mi East 13.8 mph - N/A   Partly Cloudy
1:00 PM 89 °F - 63 °F 32% 29.90 in 6 mi ENE 8.1 mph - -   Scattered Clouds
1:00 PM 87.8 °F 87.6 °F 60.8 °F 40% 29.89 in 6.2 mi ENE 17.3 mph - N/A   Partly Cloudy
1:30 PM 87.8 °F 88.5 °F 62.6 °F 43% 29.89 in 6.2 mi East 13.8 mph - N/A   Partly Cloudy
2:00 PM 89.6 °F 89.5 °F 60.8 °F 38% 29.86 in 6.2 mi East 13.8 mph - N/A   Partly Cloudy
2:30 PM 89.6 °F 89.5 °F 60.8 °F 38% 29.86 in 6.2 mi ENE 9.2 mph - N/A   Partly Cloudy
3:00 PM 89.6 °F 88.9 °F 59.0 °F 36% 29.83 in 6.2 mi East 13.8 mph - N/A   Partly Cloudy
3:30 PM 89.6 °F 89.5 °F 60.8 °F 38% 29.83 in 6.2 mi ENE 13.8 mph - N/A   Partly Cloudy
4:00 PM 89 °F - 61 °F 29% 29.84 in 6 mi ENE 5.8 mph - -   Scattered Clouds
4:00 PM 89.6 °F 89.5 °F 60.8 °F 38% 29.83 in 6.2 mi East 13.8 mph - N/A   Partly Cloudy
4:30 PM 89.6 °F 89.5 °F 60.8 °F 38% 29.83 in 6.2 mi East 8.1 mph - N/A   Partly Cloudy
5:00 PM 89.6 °F 89.5 °F 60.8 °F 38% 29.83 in 6.2 mi East 11.5 mph - N/A   Partly Cloudy
5:30 PM 87.8 °F 87.1 °F 59.0 °F 38% 29.83 in 6.2 mi East 9.2 mph - N/A   Partly Cloudy
6:30 PM 86.0 °F 86.1 °F 60.8 °F 43% 29.83 in 6.2 mi East 5.8 mph - N/A   Partly Cloudy
7:00 PM 86 °F - 67 °F 43% 29.83 in 6 mi East 5.8 mph - -   Scattered Clouds
7:00 PM 84.2 °F 85.0 °F 62.6 °F 48% 29.83 in 6.2 mi ESE 11.5 mph - N/A   Partly Cloudy
7:30 PM 84.2 °F 85.0 °F 62.6 °F 48% 29.86 in 6.2 mi ENE 9.2 mph - N/A   Partly Cloudy
8:00 PM 82.4 °F 83.4 °F 62.6 °F 51% 29.86 in 6.2 mi ESE 12.7 mph - N/A   Partly Cloudy
8:30 PM 82.4 °F 83.4 °F 62.6 °F 51% 29.89 in 6.2 mi East 6.9 mph - N/A   Scattered Clouds
9:00 PM 82.4 °F 82.9 °F 60.8 °F 48% 29.89 in 6.2 mi East 8.1 mph - N/A   Scattered Clouds
9:30 PM 80.6 °F 81.8 °F 62.6 °F 54% 29.92 in 6.2 mi East 8.1 mph - N/A   Scattered Clouds
10:00 PM 81 °F - 64 °F 46% 29.88 in 6 mi East 11.5 mph - -   Scattered Clouds
10:00 PM 80.6 °F 81.8 °F 62.6 °F 54% 29.92 in 6.2 mi ESE 6.9 mph - N/A   Scattered Clouds
10:30 PM 80.6 °F 81.8 °F 62.6 °F 54% 29.92 in 6.2 mi East 8.1 mph - N/A   Scattered Clouds
11:00 PM 78.8 °F - 60.8 °F 54% 29.92 in 6.2 mi East 8.1 mph - N/A   Scattered Clouds
11:30 PM 78.8 °F - 60.8 °F 54% 29.92 in 6.2 mi ESE 5.8 mph - N/A   Scattered Clouds